[[{"header":{"parameterUnit":"m.s-1","parameterCategory":1,"la1":30.2991,"la2":30.254,"lo1":-89.0895,"lo2":-89.0444,"dx":0.0017,"dy":0.0017,"nx":28,"ny":28,"refTime":"2022-11-03T21:00:00:Z","depth":0,"parameterNumber":2,"parameterNumberName":"U-component_of_WINDS"},"data":[0,0,0,0,0,0,0,0,0,0,0,0,0,0,0,0,0,0,0,0,0,0,0,0,0,0,0,0,0,0,0,0,0,0,0,0,0,0,0,0,0,0,0,0,0,0,0,0,0,0,0,0,0,0,0,0,0,0,-0.7254,-0.7255,0,-0.7383,-0.7384,-0.7386,-0.7452,-0.7452,-0.7452,-0.7452,-0.7594,-0.7597,-0.7601,0,0,0,0,0,0,0,0,0,0,0,0,0,-0.7073,-0.7076,-0.7253,-0.7255,-0.7257,-0.7383,-0.7384,-0.7386,-0.7452,-0.7452,-0.7452,-0.7452,-0.7592,-0.7597,-0.7601,0,0,0,0,0,0,0,0,0,0,0,0,0,-0.7172,-0.7077,-0.7253,-0.7304,-0.731,-0.7382,-0.7385,-0.7387,-0.7452,-0.7452,-0.7452,-0.7452,-0.7591,-0.7596,-0.7602,-0.7636,0,0,-0.7619,-0.7622,0,0,0,0,0,0,0,0,-0.7166,-0.7179,-0.7295,-0.7301,-0.7308,-0.7401,-0.7373,-0.7471,-0.7452,-0.7398,-0.7452,-0.7452,-0.753,-0.7541,-0.7565,-0.7642,-0.7648,-0.762,-0.7623,-0.7625,-0.7627,0,0,0,0,0,0,0,-0.7159,-0.7174,-0.7305,-0.7297,-0.7305,-0.7324,-0.7338,-0.7392,-0.7463,-0.7403,-0.7408,-0.7422,-0.7534,-0.756,-0.7569,-0.7651,-0.762,-0.7625,-0.7628,-0.763,-0.7764,-0.7765,0,0,0,0,0,0,-0.7143,-0.7167,-0.7301,-0.7309,-0.7235,-0.7327,-0.7343,-0.7371,-0.7462,-0.7476,-0.7422,-0.7425,-0.755,-0.7562,-0.7574,-0.7621,-0.7625,-0.7631,-0.7634,-0.7764,-0.7765,-0.7765,0,0,0,0,0,0,-0.7139,-0.7154,-0.7296,-0.724,-0.7259,-0.733,-0.7361,-0.7374,-0.74,-0.7476,-0.749,-0.7435,-0.7551,-0.7566,-0.762,-0.7627,-0.7633,-0.7638,-0.7764,-0.7764,-0.7765,-0.7713,0,0,0,0,0,0,-0.7133,-0.7152,-0.7163,-0.7239,-0.7262,-0.7336,-0.7362,-0.7376,-0.7408,-0.7413,-0.7492,-0.7505,-0.7552,-0.7611,-0.7625,-0.7635,-0.7643,-0.7764,-0.7764,-0.7765,-0.7715,-0.7712,-0.7709,0,0,0,0,0,-0.7127,-0.7146,-0.7164,-0.7179,-0.7276,-0.7336,-0.7349,-0.7399,-0.7408,-0.7422,-0.7471,-0.7503,-0.7623,-0.7616,-0.7633,-0.7644,-0.7764,-0.7764,-0.7764,-0.7716,-0.7712,-0.7709,0,0,0,0,0,0,-0.7072,-0.7156,-0.7177,-0.7221,-0.727,-0.7347,-0.7365,-0.7394,-0.7445,-0.7447,-0.7511,-0.7528,-0.7576,-0.7616,-0.7606,-0.7682,-0.7697,-0.7701,-0.7654,-0.7652,-0.7649,-0.7639,-0.7647,0,0,0,0,0,-0.7064,-0.7102,-0.7175,-0.7207,-0.723,-0.7293,-0.7321,-0.7355,-0.7411,-0.7433,-0.7486,-0.7541,-0.7592,-0.7624,-0.7675,-0.7721,-0.7741,-0.7737,-0.7734,-0.7732,-0.7735,-0.7764,-0.7764,-0.7766,-0.7766,-0.7766,0,0,-0.705,-0.7101,-0.7122,-0.7197,-0.7239,-0.7281,-0.7311,-0.7353,-0.7385,-0.7441,-0.7493,-0.7535,-0.7601,-0.765,-0.7675,-0.7685,-0.7738,-0.7732,-0.773,-0.7734,-0.7764,-0.7764,-0.7764,-0.7766,-0.7766,-0.7766,0,0,-0.7045,-0.7086,-0.7117,-0.7159,-0.7222,-0.7263,-0.7271,-0.7343,-0.7372,-0.7425,-0.7468,-0.751,-0.7595,-0.764,-0.7674,-0.7687,-0.7719,-0.7703,-0.7689,-0.7716,-0.7716,-0.7716,-0.7722,-0.7724,-0.7705,-0.7705,-0.7705,0,-0.702,-0.708,-0.713,-0.7169,-0.7203,-0.7252,-0.7286,-0.7325,-0.7402,-0.7426,-0.7435,-0.7543,-0.7591,-0.7653,-0.7656,-0.7682,-0.7695,-0.7694,-0.7712,-0.7712,-0.7713,-0.772,-0.7722,-0.7703,-0.7703,-0.7703,-0.7703,0,-0.7047,-0.7089,-0.7107,-0.7177,-0.7212,-0.7249,-0.7307,-0.7338,-0.7369,-0.7411,-0.7467,-0.7526,-0.759,-0.7607,-0.764,-0.7675,-0.7679,-0.7699,-0.7715,-0.771,-0.7717,-0.772,-0.7699,-0.77,-0.7701,-0.7701,0,0,-0.7011,-0.7108,-0.7114,-0.7147,-0.722,-0.7255,-0.7295,-0.7355,-0.738,-0.7433,-0.747,-0.7541,-0.756,-0.7599,-0.7637,-0.7661,-0.767,-0.7679,-0.7682,-0.7676,-0.7714,-0.7699,-0.7701,-0.7691,-0.7692,-0.7692,-0.7709,0,-0.7017,-0.7087,-0.7134,-0.7187,-0.7227,-0.7275,-0.7311,-0.7361,-0.7402,-0.7445,-0.7492,-0.7541,-0.7562,-0.7586,-0.7612,-0.7663,-0.7678,-0.7663,-0.7729,-0.7731,-0.7711,-0.7704,-0.7688,-0.7701,-0.7712,-0.7713,-0.7713,0,-0.7033,-0.7081,-0.7136,-0.7206,-0.7225,-0.7255,-0.7314,-0.7354,-0.7414,-0.7442,-0.7485,-0.7524,-0.7572,-0.7583,-0.7652,-0.764,-0.767,-0.77,-0.7702,-0.771,-0.7722,-0.7714,-0.7706,-0.7708,-0.7718,-0.7717,-0.7717,0,-0.7002,-0.7081,-0.7124,-0.7151,-0.7233,-0.7254,-0.729,-0.7349,-0.7382,-0.7436,-0.7458,-0.7517,-0.755,-0.7596,-0.7652,-0.7655,-0.7715,-0.7731,-0.7743,-0.7741,-0.7753,-0.7752,-0.7751,-0.7771,-0.7771,-0.7771,-0.7771,0,-0.7004,-0.7037,-0.7111,-0.7138,-0.7178,-0.7233,-0.7271,-0.7312,-0.7364,-0.7403,-0.745,-0.7485,-0.7555,-0.7601,-0.7645,-0.7696,-0.771,-0.7737,-0.7748,-0.7733,-0.7729,-0.7754,-0.7755,-0.7772,-0.7772,-0.7772,-0.7772,0,-0.6976,-0.7027,-0.7078,-0.7151,-0.717,-0.7196,-0.7261,-0.7291,-0.7333,-0.7382,-0.7397,-0.7465,-0.7521,-0.758,-0.7658,-0.7687,-0.7737,-0.7753,-0.7715,-0.7722,-0.773,-0.7729,-0.7746,-0.7752,-0.7767,-0.7766,-0.7766,0,-0.6974,-0.6999,-0.7075,-0.7102,-0.7135,-0.7179,-0.7213,-0.7269,-0.7303,-0.7373,-0.7396,-0.7454,-0.7504,-0.7592,-0.7652,-0.7712,-0.773,-0.7731,-0.7739,-0.7723,-0.7731,-0.7729,-0.7733,-0.7729,-0.7728,-0.7728,-0.7728,0,-0.6965,-0.6989,-0.7033,-0.7087,-0.7125,-0.7171,-0.7219,-0.724,-0.7307,-0.7343,-0.7399,-0.7437,-0.7515,-0.7574,-0.7641,-0.7682,-0.7717,-0.7725,-0.7731,-0.7716,-0.7693,-0.7707,-0.7709,-0.7724,-0.7725,-0.7725,-0.7725,-0.7725,-0.6951,-0.6976,-0.7033,-0.7082,-0.7123,-0.7167,-0.7199,-0.7245,-0.7291,-0.7356,-0.7388,-0.7445,-0.7507,-0.76,-0.764,-0.7688,-0.7698,-0.7706,-0.7709,-0.771,-0.7707,-0.7685,-0.77,-0.77,-0.7701,-0.7701,-0.7701,0,-0.6945,-0.6984,-0.7028,-0.7092,-0.7131,-0.7157,-0.7212,-0.7244,-0.7292,-0.7345,-0.7393,-0.7458,-0.7516,-0.7579,-0.7642,-0.7668,-0.7686,-0.7683,-0.7682,-0.7691,-0.7693,-0.7682,-0.7667,-0.7667,-0.7667,-0.7667,-0.7667,-0.7667,-0.6947,-0.6992,-0.7022,-0.709,-0.7129,-0.7182,-0.7211,-0.7254,-0.7296,-0.7366,-0.7413,-0.7452,-0.7511,-0.7578,-0.7633,-0.7651,-0.7672,-0.7665,-0.7687,-0.7688,-0.7691,-0.7693,-0.7683,-0.7668,-0.7668,-0.7681,-0.7681,-0.7681]},{"header":{"parameterUnit":"m.s-1","parameterCategory":1,"la1":30.2991,"la2":30.254,"lo1":-89.0895,"lo2":-89.0444,"dx":0.0017,"dy":0.0017,"nx":28,"ny":28,"refTime":"2022-11-03T21:00:00:Z","depth":0,"parameterNumber":3,"parameterNumberName":"V-component_of_WINDS"},"data":[0,0,0,0,0,0,0,0,0,0,0,0,0,0,0,0,0,0,0,0,0,0,0,0,0,0,0,0,0,0,0,0,0,0,0,0,0,0,0,0,0,0,0,0,0,0,0,0,0,0,0,0,0,0,0,0,0,0,5.2415,5.2415,0,5.2453,5.2454,5.2454,5.2442,5.2441,5.2441,5.244,5.2476,5.2477,5.2479,0,0,0,0,0,0,0,0,0,0,0,0,0,5.2329,5.2331,5.2415,5.2415,5.2416,5.2453,5.2454,5.2454,5.2442,5.2441,5.244,5.2439,5.2475,5.2477,5.2479,0,0,0,0,0,0,0,0,0,0,0,0,0,5.2367,5.2331,5.2415,5.2415,5.2415,5.2453,5.2454,5.2454,5.2442,5.2441,5.244,5.2439,5.2475,5.2477,5.248,5.252,0,0,5.2487,5.2489,0,0,0,0,0,0,0,0,5.2364,5.237,5.2414,5.2415,5.2415,5.2442,5.2437,5.2476,5.2443,5.2432,5.244,5.2438,5.2465,5.2468,5.2478,5.2521,5.2523,5.2488,5.2489,5.249,5.2491,0,0,0,0,0,0,0,5.2362,5.2368,5.243,5.2415,5.2415,5.2412,5.2416,5.2444,5.2455,5.2433,5.2432,5.2437,5.2465,5.2476,5.2479,5.2523,5.2488,5.249,5.2491,5.2492,5.2603,5.2604,0,0,0,0,0,0,5.2359,5.2366,5.2429,5.2431,5.2386,5.2414,5.2419,5.2434,5.2454,5.2456,5.2438,5.2436,5.2472,5.2476,5.248,5.253,5.249,5.2493,5.2494,5.2601,5.2603,5.2605,0,0,0,0,0,0,5.2358,5.2365,5.2427,5.2398,5.2406,5.2417,5.2435,5.2436,5.2446,5.2458,5.246,5.2447,5.2471,5.2477,5.2511,5.2531,5.2494,5.2496,5.26,5.2602,5.2604,5.2629,0,0,0,0,0,0,5.2355,5.2365,5.238,5.2399,5.2408,5.2458,5.2436,5.2437,5.2451,5.2449,5.2467,5.2469,5.2471,5.2507,5.2513,5.2534,5.2498,5.2598,5.2601,5.2603,5.2626,5.2631,5.2636,0,0,0,0,0,5.2352,5.2385,5.2381,5.2389,5.2428,5.2459,5.2464,5.2466,5.2453,5.2469,5.2477,5.2468,5.2527,5.251,5.2517,5.2539,5.2597,5.26,5.2603,5.2624,5.263,5.2636,0,0,0,0,0,0,5.2366,5.2387,5.2383,5.2423,5.244,5.2457,5.2477,5.2472,5.2492,5.2489,5.249,5.2494,5.253,5.2537,5.2518,5.258,5.256,5.2565,5.2574,5.258,5.2585,5.2582,5.25,0,0,0,0,0,5.2375,5.2399,5.2415,5.2448,5.2457,5.2466,5.2479,5.248,5.2496,5.2503,5.2513,5.2529,5.2551,5.2565,5.2586,5.2627,5.2631,5.2645,5.265,5.2654,5.2659,5.2682,5.2689,5.2615,5.2615,5.2615,0,0,5.2391,5.2405,5.242,5.2452,5.2465,5.249,5.2471,5.2498,5.2517,5.2506,5.254,5.2548,5.2566,5.2604,5.2621,5.2611,5.268,5.2658,5.2661,5.2663,5.2686,5.2693,5.2699,5.2617,5.2617,5.2616,0,0,5.2434,5.2447,5.2477,5.2491,5.2511,5.2517,5.2524,5.2542,5.2548,5.2582,5.2575,5.2597,5.2634,5.2648,5.266,5.2709,5.2703,5.2716,5.2742,5.2765,5.2771,5.2776,5.2795,5.2802,5.272,5.272,5.272,0,5.2451,5.249,5.2493,5.2521,5.2536,5.2529,5.256,5.2572,5.2598,5.2608,5.2597,5.2646,5.2657,5.2698,5.2711,5.272,5.2729,5.2714,5.277,5.2775,5.278,5.2798,5.2805,5.2722,5.2721,5.2721,5.2721,0,5.2511,5.2538,5.256,5.2587,5.2604,5.2633,5.264,5.2656,5.2655,5.2662,5.2697,5.271,5.2735,5.2744,5.2743,5.2786,5.278,5.2769,5.275,5.2789,5.2806,5.2813,5.2724,5.2723,5.2723,5.2722,0,0,5.2565,5.2594,5.2602,5.2615,5.2638,5.2658,5.2687,5.2712,5.2727,5.2745,5.2769,5.2802,5.2793,5.2807,5.2807,5.2827,5.2867,5.2814,5.2814,5.2825,5.2918,5.2927,5.2935,5.2863,5.2864,5.2865,5.2917,0,5.2611,5.2664,5.2668,5.2715,5.274,5.2735,5.276,5.2776,5.2783,5.2805,5.2812,5.2837,5.2822,5.283,5.285,5.2858,5.2886,5.2854,5.2886,5.2887,5.2884,5.2944,5.2953,5.3001,5.2924,5.2925,5.2926,0,5.2672,5.2694,5.2745,5.2765,5.2776,5.2799,5.2824,5.2844,5.2863,5.2867,5.2883,5.288,5.291,5.2889,5.293,5.2908,5.2921,5.2927,5.2929,5.2933,5.291,5.2951,5.3017,5.3025,5.2936,5.2935,5.2934,0,5.2708,5.275,5.2786,5.2797,5.2822,5.2838,5.2849,5.2866,5.2882,5.2902,5.2913,5.2936,5.2949,5.2967,5.2971,5.2955,5.3013,5.2992,5.3017,5.3017,5.3031,5.303,5.3101,5.3037,5.3037,5.3036,5.3036,0,5.2761,5.2792,5.2803,5.2826,5.2861,5.2865,5.2899,5.2908,5.2924,5.2948,5.2944,5.2966,5.2969,5.2992,5.2995,5.303,5.3035,5.3039,5.304,5.3041,5.3041,5.305,5.3048,5.3038,5.3038,5.3037,5.3037,0,5.2807,5.2816,5.2855,5.2876,5.2882,5.2907,5.2924,5.2946,5.2953,5.2983,5.299,5.3001,5.3028,5.3034,5.3065,5.3067,5.3109,5.3105,5.3103,5.3103,5.313,5.3128,5.321,5.3222,5.3149,5.3149,5.315,0,5.2841,5.2866,5.2889,5.2906,5.2918,5.2944,5.2961,5.2965,5.2982,5.3006,5.3025,5.3051,5.3073,5.3117,5.3127,5.3151,5.3149,5.3177,5.3153,5.3153,5.3152,5.3151,5.3154,5.3182,5.3182,5.3183,5.3183,0,5.29,5.2904,5.2929,5.2955,5.2976,5.2996,5.3016,5.3029,5.3036,5.3056,5.3084,5.3101,5.3135,5.3162,5.3186,5.3196,5.3192,5.3191,5.3198,5.32,5.3199,5.3202,5.3117,5.3189,5.3189,5.3188,5.3188,5.3188,5.2943,5.2965,5.2986,5.3014,5.303,5.3049,5.3071,5.3081,5.3105,5.3134,5.3134,5.3166,5.3184,5.3217,5.3229,5.3254,5.3245,5.3255,5.3258,5.3261,5.3265,5.3194,5.3258,5.3258,5.3257,5.3257,5.3257,0,5.3004,5.3017,5.3043,5.3072,5.3094,5.3088,5.311,5.3129,5.3157,5.3175,5.3198,5.3231,5.3257,5.327,5.3296,5.3314,5.3312,5.332,5.332,5.3323,5.327,5.3262,5.3321,5.3321,5.3321,5.3321,5.3321,5.3321,5.3038,5.3076,5.3083,5.3128,5.3141,5.3174,5.3187,5.3204,5.3219,5.3257,5.328,5.3288,5.3305,5.3332,5.3356,5.3359,5.337,5.338,5.3382,5.3333,5.3326,5.332,5.3312,5.3381,5.3382,5.3432,5.3433,5.3433]}]]